• In Austria
  • List of Countries
  • For 7 days
  • Water Temperature
  • Satellite Maps
  • Weather Map
  • News
  • Weather Widgets
  • user-avatar
    Login

    Hourly Weather Batina

    Today, 19 July, Thursday

    Time Temperature Precipitation Wind Pressure Humidity
    00:00 +31°C° 0 mm 1 mps 673 mmHg 24%
    01:00 +31°C° 0 mm 1 mps 673 mmHg 25%
    02:00 +30°C° 0 mm 1 mps 673 mmHg 26%
    03:00 +30°C° 0 mm 1 mps 673 mmHg 27%
    04:00 +30°C° 0 mm 1 mps 673 mmHg 26%
    05:00 +31°C° 0 mm 1 mps 673 mmHg 26%
    06:00 +31°C° 0 mm 1 mps 674 mmHg 25%
    07:00 +34°C° 0 mm 2 mps 674 mmHg 23%
    08:00 +35°C° 0 mm 2 mps 675 mmHg 20%
    09:00 +36°C° 0 mm 2 mps 675 mmHg 18%
    10:00 +38°C° 0 mm 3 mps 675 mmHg 16%
    11:00 +40°C° 0 mm 4 mps 675 mmHg 14%
    12:00 +41°C° 0 mm 5 mps 676 mmHg 12%
    13:00 +41°C° 0 mm 5 mps 675 mmHg 12%
    14:00 +41°C° 0 mm 5 mps 675 mmHg 11%
    15:00 +41°C° 0 mm 6 mps 675 mmHg 11%
    16:00 +40°C° 0 mm 6 mps 675 mmHg 13%
    17:00 +39°C° 0 mm 6 mps 674 mmHg 16%
    18:00 +38°C° 0 mm 7 mps 674 mmHg 19%
    19:00 +36°C° 0 mm 5 mps 674 mmHg 21%
    20:00 +34°C° 0 mm 4 mps 674 mmHg 24%
    21:00 +33°C° 0 mm 3 mps 674 mmHg 27%
    22:00 +32°C° 0 mm 2 mps 674 mmHg 27%
    23:00 +31°C° 0 mm 1 mps 674 mmHg 28%

    Tomorrow, 20 July, Friday

    Time Temperature Precipitation Wind Pressure Humidity
    00:00 +30°C° 0 mm 1 mps 674 mmHg 28%
    01:00 +30°C° 0 mm 1 mps 674 mmHg 28%
    02:00 +30°C° 0 mm 1 mps 674 mmHg 28%
    03:00 +28°C° 0 mm 0 mps 673 mmHg 28%
    04:00 +30°C° 0 mm 1 mps 674 mmHg 26%
    05:00 +31°C° 0 mm 1 mps 674 mmHg 25%
    06:00 +31°C° 0 mm 1 mps 674 mmHg 24%
    07:00 +34°C° 0 mm 2 mps 674 mmHg 21%
    08:00 +35°C° 0 mm 2 mps 675 mmHg 18%
    09:00 +37°C° 0 mm 3 mps 675 mmHg 15%
    10:00 +38°C° 0 mm 3 mps 675 mmHg 15%
    11:00 +40°C° 0 mm 4 mps 675 mmHg 14%
    12:00 +41°C° 0 mm 5 mps 675 mmHg 14%
    13:00 +41°C° 0 mm 5 mps 675 mmHg 14%
    14:00 +41°C° 0 mm 5 mps 675 mmHg 13%
    15:00 +41°C° 0 mm 5 mps 674 mmHg 13%
    16:00 +40°C° 0 mm 5 mps 674 mmHg 14%
    17:00 +40°C° 0 mm 5 mps 674 mmHg 15%
    18:00 +39°C° 0 mm 5 mps 674 mmHg 16%
    19:00 +37°C° 0.1 mm 5 mps 674 mmHg 19%
    20:00 +35°C° 0.1 mm 5 mps 674 mmHg 22%
    21:00 +33°C° 0.1 mm 5 mps 674 mmHg 26%
    22:00 +33°C° 0 mm 4 mps 674 mmHg 26%
    23:00 +32°C° 0 mm 4 mps 674 mmHg 26%

    Day after tomorrow, 21 July, Saturday

    Time Temperature Precipitation Wind Pressure Humidity
    00:00 +30°C° 0 mm 3 mps 673 mmHg 26%
    01:00 +30°C° 0 mm 3 mps 673 mmHg 27%
    02:00 +30°C° 0 mm 3 mps 673 mmHg 27%
    03:00 +29°C° 0 mm 3 mps 672 mmHg 27%
    04:00 +30°C° 0 mm 3 mps 673 mmHg 26%
    05:00 +30°C° 0 mm 4 mps 673 mmHg 25%
    06:00 +32°C° 0 mm 4 mps 673 mmHg 23%
    07:00 +33°C° 0 mm 6 mps 674 mmHg 20%
    08:00 +35°C° 0 mm 8 mps 674 mmHg 17%
    09:00 +38°C° 0 mm 9 mps 675 mmHg 13%
    10:00 +39°C° 0 mm 10 mps 675 mmHg 12%
    11:00 +40°C° 0 mm 10 mps 675 mmHg 12%
    12:00 +42°C° 0 mm 10 mps 675 mmHg 11%
    13:00 +42°C° 0 mm 9 mps 675 mmHg 11%
    14:00 +42°C° 0 mm 9 mps 675 mmHg 11%
    15:00 +41°C° 0 mm 8 mps 674 mmHg 10%
    16:00 +41°C° 0 mm 7 mps 674 mmHg 11%
    17:00 +40°C° 0 mm 6 mps 674 mmHg 11%
    18:00 +40°C° 0 mm 4 mps 674 mmHg 11%
    19:00 +38°C° 0 mm 4 mps 674 mmHg 13%
    20:00 +37°C° 0 mm 3 mps 674 mmHg 14%
    21:00 +36°C° 0 mm 2 mps 674 mmHg 15%
    22:00 +35°C° 0 mm 2 mps 674 mmHg 17%
    23:00 +34°C° 0 mm 3 mps 673 mmHg 19%

    22 July, Sunday

    Time Temperature Precipitation Wind Pressure Humidity
    00:00 +33°C° 0 mm 3 mps 673 mmHg 20%
    01:00 +33°C° 0 mm 3 mps 673 mmHg 22%
    02:00 +31°C° 0 mm 3 mps 672 mmHg 24%
    03:00 +31°C° 0 mm 3 mps 672 mmHg 26%
    04:00 +31°C° 0 mm 3 mps 672 mmHg 25%
    05:00 +32°C° 0 mm 4 mps 672 mmHg 24%
    06:00 +32°C° 0 mm 5 mps 672 mmHg 23%
    07:00 +34°C° 0 mm 6 mps 673 mmHg 21%
    08:00 +36°C° 0 mm 7 mps 673 mmHg 18%
    09:00 +38°C° 0 mm 9 mps 674 mmHg 15%
    10:00 +39°C° 0 mm 8 mps 674 mmHg 13%
    11:00 +40°C° 0 mm 8 mps 674 mmHg 12%
    12:00 +41°C° 0 mm 7 mps 674 mmHg 10%
    13:00 +41°C° 0 mm 8 mps 673 mmHg 10%
    14:00 +41°C° 0 mm 8 mps 673 mmHg 11%
    15:00 +41°C° 0 mm 8 mps 673 mmHg 11%
    16:00 +40°C° 0 mm 7 mps 672 mmHg 16%
    17:00 +38°C° 0 mm 6 mps 672 mmHg 20%
    18:00 +36°C° 0 mm 6 mps 672 mmHg 25%
    19:00 +34°C° 0 mm 5 mps 672 mmHg 32%
    20:00 +32°C° 0 mm 5 mps 672 mmHg 39%
    21:00 +29°C° 0 mm 4 mps 672 mmHg 45%
    22:00 +29°C° 0 mm 4 mps 672 mmHg 48%
    23:00 +28°C° 0 mm 4 mps 672 mmHg 50%

    23 July, Monday

    Time Temperature Precipitation Wind Pressure Humidity
    00:00 +27°C° 0 mm 3 mps 672 mmHg 52%
    01:00 +26°C° 0 mm 3 mps 672 mmHg 53%
    02:00 +26°C° 0 mm 3 mps 671 mmHg 54%
    03:00 +25°C° 0 mm 3 mps 671 mmHg 55%
    04:00 +25°C° 0 mm 3 mps 671 mmHg 53%
    05:00 +25°C° 0 mm 3 mps 671 mmHg 52%
    06:00 +25°C° 0 mm 3 mps 672 mmHg 51%
    07:00 +26°C° 0 mm 3 mps 672 mmHg 43%
    08:00 +28°C° 0 mm 3 mps 673 mmHg 36%
    09:00 +30°C° 0 mm 3 mps 673 mmHg 29%
    10:00 +31°C° 0 mm 3 mps 673 mmHg 25%
    11:00 +33°C° 0 mm 4 mps 673 mmHg 20%
    12:00 +35°C° 0 mm 4 mps 673 mmHg 16%
    13:00 +35°C° 0 mm 4 mps 673 mmHg 16%
    14:00 +35°C° 0 mm 5 mps 673 mmHg 15%
    15:00 +36°C° 0 mm 5 mps 673 mmHg 15%
    16:00 +35°C° 0 mm 5 mps 673 mmHg 17%
    17:00 +34°C° 0 mm 5 mps 673 mmHg 19%
    18:00 +33°C° 0 mm 5 mps 673 mmHg 22%
    19:00 +32°C° 0 mm 4 mps 673 mmHg 25%
    20:00 +29°C° 0 mm 4 mps 673 mmHg 29%
    21:00 +28°C° 0 mm 3 mps 673 mmHg 32%
    22:00 +28°C° 0 mm 2 mps 673 mmHg 34%
    23:00 +27°C° 0 mm 2 mps 672 mmHg 36%

    24 July, Tuesday

    Time Temperature Precipitation Wind Pressure Humidity
    00:00 +26°C° 0 mm 1 mps 672 mmHg 38%
    01:00 +25°C° 0 mm 1 mps 672 mmHg 40%
    02:00 +25°C° 0 mm 1 mps 671 mmHg 42%
    03:00 +22°C° 0 mm 0 mps 671 mmHg 43%
    04:00 +23°C° 0 mm 0 mps 671 mmHg 41%
    05:00 +25°C° 0 mm 1 mps 672 mmHg 40%
    06:00 +25°C° 0 mm 1 mps 672 mmHg 38%
    07:00 +27°C° 0 mm 1 mps 673 mmHg 34%
    08:00 +28°C° 0 mm 2 mps 673 mmHg 29%
    09:00 +30°C° 0 mm 3 mps 673 mmHg 25%
    10:00 +31°C° 0 mm 3 mps 673 mmHg 23%
    11:00 +34°C° 0 mm 4 mps 673 mmHg 20%
    12:00 +35°C° 0 mm 4 mps 674 mmHg 17%
    13:00 +36°C° 0 mm 4 mps 673 mmHg 16%
    14:00 +36°C° 0 mm 4 mps 673 mmHg 15%
    15:00 +37°C° 0 mm 4 mps 673 mmHg 15%
    16:00 +36°C° 0 mm 4 mps 673 mmHg 16%
    17:00 +36°C° 0 mm 4 mps 673 mmHg 16%
    18:00 +35°C° 0 mm 4 mps 673 mmHg 17%
    19:00 +34°C° 0 mm 4 mps 673 mmHg 20%
    20:00 +33°C° 0 mm 3 mps 673 mmHg 22%
    21:00 +30°C° 0 mm 2 mps 673 mmHg 25%
    22:00 +30°C° 0 mm 2 mps 672 mmHg 26%
    23:00 +29°C° 0 mm 1 mps 672 mmHg 28%
    Show more